Showing default

TRANSIT 4B, 202

Orbit data source: Space-Track

TRANSIT 4B, 202 is a payload satellite owned by USN BuWeps (US) in LEO that was launched on Wed, 15 Nov 1961 UTC via a THOR ABLESTAR launch vehicle from the Air Force Eastern Test Range (AFETR). Payload-class satellites include a variety of spacecraft equipped with specific instruments for various scientific and technological missions. These include communications satellites like Starlink; space stations such as the ISS; scientific satellites like the Hubble; Earth observation satellites from companies like Planet Labs, Umbra, and HawkEye 360; GPS; miniature CubeSats for education and research; and military/defense satellites.

Loading next visibility...
Identifier
202, 1961-031A
Orbit
LEO
Country
Flag of USUS
Related business
Manufacturer
APL
Mission
Spacecraft
Bus & Motor
TRANSIT 4, Unknown motor
Mass
89 kg wet, 89 kg dry
Launch date (UTC)
1961-11-15 (64 years ago)
Launch vehicle
THOR ABLESTAR
Launch site
Air Force Eastern Test Range (AFETR)
Object type
Payload
Rocket body
Debris
Shape & HBR
Unknown
Radar Cross Section
Large (>1 m²)

Expand to show TLE details & history
Last TLE update: 6 hours ago

TLE from 6 hours ago
0 TRANSIT 4B
1 00202U 61031A   26121.31802207  .00000109  00000-0  10289-3 0  9993
2 00202  32.4373 237.0604 0101073 219.0528 140.2761 13.63789418214591
Epoch: 2026-05-01T07:37Z
TLE epoch observation values (Epoch: 2026-05-01T07:37:57.106Z)
Latitude
-0.00003°
Longitude
-96.67959°
Altitude
1,078.511 km
Speed
7.286 km/s
True Right ascension
15h 48m 14s
True Declination
0° 00' 00"
Sunlit
Object was in full shadow at epoch
Visualization orbit readout
Latitude
Unknown
Longitude
Unknown
Altitude
Unknown
Speed
Unknown
Apparent Right ascension
Unknown
Apparent Declination
Unknown
Sunlit
N/A
Visualization observer readout
Local Sidereal Time
20:52:02
Azimuth
Unknown
Elevation
Unknown
Doppler factor
Unknown
Orbital elements
Apogee altitude
1,100.171 km
Perigee altitude
950.513 km
Semi-major axis
7,403.479 km
Eccentricity
0.01011
Inclination
32.4373°
RAAN
237.0604°
Arg. of periapsis
219.0528°
True anomaly
141.00915°
Mean anomaly
140.2761°
Eccentric anomaly
140.64334°
Mean motion
3.40714 °/min
Orbital period
105.66 mins
BSTAR
0.00010289
Loading maneuver chart data...
Computing Atmospheric mass density...
Loading historical data...
Loading historical data...
Loading historical data...
Loading historical data...
Loading historical data...
Loading historical data...
Loading historical data...
Other satellites on launch #31 in the year 1961 (1961-11-15 UTC)

Documentation

Showing up to 5 results
|